[[{"header":{"parameterUnit":"m.s-1","parameterCategory":1,"la1":30.2991,"la2":30.254,"lo1":-89.0895,"lo2":-89.0444,"dy":0.0017,"dx":0.0017,"nx":28,"ny":28,"refTime":"2024-06-15T09:00:00:Z","depth":0,"parameterNumber":2,"parameterNumberName":"U-component_of_WINDS"},"data":[0,0,0,0,0,0,0,0,0,0,0,0,0,0,0,0,0,0,0,0,0,0,0,0,0,0,0,0,0,0,0,0,0,0,0,0,0,0,0,0,0,0,0,0,0,0,0,0,0,0,0,0,0,0,0,0,0,0,-3.6502,-3.6501,0,-3.64,-3.6399,-3.6398,-3.6298,-3.6297,-3.6295,-3.6294,-3.6181,-3.6179,-3.6177,0,0,0,0,0,0,0,0,0,0,0,0,0,-3.6605,-3.6604,-3.6502,-3.6501,-3.65,-3.64,-3.6399,-3.6397,-3.6298,-3.6297,-3.6295,-3.6294,-3.6181,-3.6179,-3.6177,0,0,0,0,0,0,0,0,0,0,0,0,0,-3.6537,-3.6603,-3.6502,-3.6438,-3.6432,-3.6401,-3.6399,-3.6397,-3.6298,-3.6296,-3.6295,-3.6293,-3.6182,-3.6179,-3.6177,-3.6198,0,0,-3.6168,-3.6167,0,0,0,0,0,0,0,0,-3.6541,-3.6534,-3.6449,-3.6443,-3.6435,-3.636,-3.6394,-3.633,-3.6299,-3.6349,-3.6294,-3.6292,-3.6241,-3.6234,-3.6218,-3.6193,-3.6188,-3.6168,-3.6166,-3.6165,-3.6165,0,0,0,0,0,0,0,-3.6546,-3.6537,-3.6461,-3.6448,-3.6439,-3.6413,-3.6401,-3.6381,-3.6307,-3.6344,-3.6337,-3.6327,-3.6237,-3.6221,-3.6215,-3.6186,-3.6168,-3.6166,-3.6164,-3.6163,-3.6175,-3.6177,0,0,0,0,0,0,-3.6562,-3.6542,-3.6465,-3.6458,-3.6485,-3.6413,-3.6399,-3.6386,-3.6307,-3.6293,-3.6328,-3.6322,-3.6227,-3.6218,-3.6211,-3.6231,-3.6165,-3.6163,-3.6161,-3.6173,-3.6176,-3.6178,0,0,0,0,0,0,-3.6564,-3.6556,-3.6469,-3.6498,-3.6485,-3.6413,-3.6398,-3.6385,-3.6369,-3.6295,-3.628,-3.6326,-3.6225,-3.6214,-3.6203,-3.6226,-3.6162,-3.6159,-3.6171,-3.6174,-3.6177,-3.6272,0,0,0,0,0,0,-3.6568,-3.6557,-3.6566,-3.6499,-3.6484,-3.6465,-3.64,-3.6384,-3.6366,-3.6357,-3.6289,-3.6276,-3.6223,-3.6208,-3.6201,-3.6221,-3.6157,-3.6168,-3.6172,-3.6176,-3.6267,-3.6278,-3.6288,0,0,0,0,0,-3.6572,-3.6594,-3.6567,-3.6558,-3.6494,-3.6466,-3.6457,-3.6398,-3.6368,-3.6375,-3.6328,-3.6278,-3.6226,-3.6208,-3.6198,-3.6218,-3.6167,-3.6171,-3.6175,-3.6262,-3.6276,-3.6288,0,0,0,0,0,0,-3.6661,-3.6584,-3.6553,-3.6555,-3.6519,-3.645,-3.6456,-3.6415,-3.6384,-3.6376,-3.6302,-3.6288,-3.6285,-3.625,-3.6232,-3.6236,-3.6189,-3.6192,-3.6258,-3.6271,-3.6281,-3.6288,-3.6155,0,0,0,0,0,-3.6682,-3.6669,-3.6601,-3.661,-3.6594,-3.6529,-3.6515,-3.6473,-3.6431,-3.6414,-3.6366,-3.6325,-3.6299,-3.6283,-3.6255,-3.6263,-3.6246,-3.6272,-3.6283,-3.6292,-3.6294,-3.6296,-3.6307,-3.6192,-3.6192,-3.6192,0,0,-3.6723,-3.668,-3.6675,-3.6627,-3.6594,-3.658,-3.6516,-3.6503,-3.6492,-3.6411,-3.6398,-3.6362,-3.6311,-3.631,-3.6307,-3.6281,-3.6323,-3.6297,-3.6305,-3.6302,-3.6302,-3.6313,-3.6323,-3.6195,-3.6195,-3.6194,0,0,-3.6791,-3.6757,-3.6761,-3.6731,-3.6683,-3.664,-3.6642,-3.6581,-3.6554,-3.6542,-3.6481,-3.6466,-3.6423,-3.639,-3.6367,-3.6428,-3.6381,-3.6421,-3.6475,-3.6478,-3.6487,-3.6495,-3.6516,-3.6525,-3.6424,-3.6425,-3.6425,0,-3.6847,-3.6826,-3.6768,-3.676,-3.6741,-3.6672,-3.6675,-3.6647,-3.6591,-3.6579,-3.6552,-3.65,-3.646,-3.6451,-3.6466,-3.6451,-3.6449,-3.6427,-3.6491,-3.6498,-3.6504,-3.6524,-3.6532,-3.643,-3.6429,-3.6429,-3.6428,0,-3.6897,-3.6884,-3.6893,-3.6845,-3.6827,-3.6824,-3.6765,-3.6753,-3.6715,-3.6675,-3.6663,-3.6615,-3.6577,-3.6572,-3.6533,-3.6558,-3.6544,-3.6506,-3.6456,-3.6522,-3.6538,-3.6545,-3.6437,-3.6435,-3.6434,-3.6432,0,0,-3.7014,-3.6938,-3.6942,-3.692,-3.6865,-3.6852,-3.6848,-3.6814,-3.6806,-3.6771,-3.6764,-3.6732,-3.6698,-3.6673,-3.6629,-3.6632,-3.6684,-3.6593,-3.6591,-3.6611,-3.6708,-3.6736,-3.6746,-3.6654,-3.6655,-3.6656,-3.6713,0,-3.7071,-3.706,-3.701,-3.7013,-3.7,-3.6937,-3.6932,-3.6897,-3.6861,-3.6843,-3.6802,-3.6781,-3.6737,-3.6722,-3.6723,-3.6678,-3.6702,-3.6673,-3.6644,-3.6644,-3.6657,-3.6755,-3.6783,-3.6839,-3.6719,-3.672,-3.6721,0,-3.7134,-3.7108,-3.7112,-3.7059,-3.7052,-3.7049,-3.7016,-3.7,-3.696,-3.6933,-3.6908,-3.6861,-3.6852,-3.6809,-3.6794,-3.6776,-3.6762,-3.6738,-3.6739,-3.6732,-3.6685,-3.6749,-3.6855,-3.6863,-3.673,-3.673,-3.6729,0,-3.7219,-3.7184,-3.7182,-3.7165,-3.7104,-3.7104,-3.7078,-3.7036,-3.702,-3.6991,-3.6979,-3.6948,-3.6931,-3.6907,-3.6853,-3.6827,-3.6844,-3.6797,-3.682,-3.6822,-3.6824,-3.6824,-3.6928,-3.6819,-3.6819,-3.6819,-3.6818,0,-3.7286,-3.729,-3.7219,-3.7217,-3.7221,-3.7163,-3.7167,-3.7135,-3.7099,-3.7089,-3.7032,-3.7024,-3.6954,-3.6937,-3.6895,-3.6889,-3.6881,-3.6859,-3.6847,-3.6863,-3.6865,-3.685,-3.6844,-3.6821,-3.682,-3.682,-3.682,0,-3.7379,-3.7331,-3.7325,-3.727,-3.7256,-3.7261,-3.7212,-3.7208,-3.7171,-3.7159,-3.7153,-3.7093,-3.7071,-3.7016,-3.6978,-3.695,-3.6955,-3.6935,-3.697,-3.6962,-3.6989,-3.6987,-3.7084,-3.7094,-3.6981,-3.6982,-3.6983,0,-3.7424,-3.7426,-3.7373,-3.7364,-3.7341,-3.7327,-3.7312,-3.7256,-3.7243,-3.7199,-3.72,-3.7175,-3.7151,-3.7118,-3.707,-3.7042,-3.7019,-3.7056,-3.7014,-3.703,-3.7018,-3.7018,-3.7018,-3.7063,-3.7065,-3.7066,-3.7067,0,-3.7508,-3.7486,-3.7468,-3.7443,-3.7427,-3.7404,-3.7377,-3.7372,-3.731,-3.7297,-3.7276,-3.7258,-3.7223,-3.7198,-3.7163,-3.7134,-3.709,-3.7082,-3.7085,-3.71,-3.712,-3.7109,-3.6993,-3.7079,-3.7077,-3.7077,-3.7076,-3.7076,-3.7577,-3.7577,-3.7541,-3.7523,-3.7498,-3.7475,-3.747,-3.7434,-3.7416,-3.7385,-3.7353,-3.7336,-3.7297,-3.7246,-3.7221,-3.7205,-3.7182,-3.7188,-3.7189,-3.719,-3.7198,-3.7126,-3.7199,-3.7198,-3.7198,-3.7197,-3.7197,0,-3.7658,-3.7633,-3.7618,-3.7584,-3.7571,-3.7536,-3.7505,-3.7495,-3.7481,-3.7451,-3.743,-3.7407,-3.7383,-3.7336,-3.7308,-3.7305,-3.7284,-3.7299,-3.7297,-3.7292,-3.722,-3.7219,-3.7317,-3.7317,-3.7317,-3.7317,-3.7316,-3.7316,-3.7699,-3.7697,-3.7671,-3.7657,-3.7631,-3.7616,-3.7602,-3.758,-3.7556,-3.7534,-3.7515,-3.7486,-3.7448,-3.7418,-3.7395,-3.7382,-3.7373,-3.7395,-3.7375,-3.7308,-3.7296,-3.7285,-3.7284,-3.7394,-3.7394,-3.7447,-3.7448,-3.7448]},{"header":{"parameterUnit":"m.s-1","parameterCategory":1,"la1":30.2991,"la2":30.254,"lo1":-89.0895,"lo2":-89.0444,"dy":0.0017,"dx":0.0017,"nx":28,"ny":28,"refTime":"2024-06-15T09:00:00:Z","depth":0,"parameterNumber":3,"parameterNumberName":"V-component_of_WINDS"},"data":[0,0,0,0,0,0,0,0,0,0,0,0,0,0,0,0,0,0,0,0,0,0,0,0,0,0,0,0,0,0,0,0,0,0,0,0,0,0,0,0,0,0,0,0,0,0,0,0,0,0,0,0,0,0,0,0,0,0,6.6714,6.6715,0,6.673,6.673,6.673,6.6615,6.6612,6.6609,6.6606,6.6622,6.6626,6.6629,0,0,0,0,0,0,0,0,0,0,0,0,0,6.6584,6.6587,6.6714,6.6715,6.6715,6.673,6.673,6.673,6.6616,6.6612,6.6608,6.6604,6.6621,6.6625,6.6629,0,0,0,0,0,0,0,0,0,0,0,0,0,6.6624,6.6588,6.6714,6.666,6.6655,6.673,6.673,6.673,6.6617,6.6612,6.6607,6.6603,6.662,6.6625,6.663,6.6758,0,0,6.6646,6.6648,0,0,0,0,0,0,0,0,6.6622,6.6629,6.6668,6.6664,6.6658,6.6666,6.669,6.6739,6.6618,6.6631,6.6606,6.66,6.6641,6.6644,6.6657,6.6759,6.6759,6.6646,6.6649,6.6651,6.6653,0,0,0,0,0,0,0,6.662,6.6628,6.672,6.6668,6.6663,6.6633,6.6634,6.6699,6.6663,6.663,6.6622,6.6625,6.6637,6.6653,6.6657,6.676,6.6646,6.665,6.6654,6.6656,6.6962,6.6967,0,0,0,0,0,0,6.6624,6.6626,6.672,6.6721,6.6628,6.664,6.664,6.6668,6.6662,6.6656,6.6629,6.6619,6.6646,6.6651,6.6657,6.6804,6.6651,6.6656,6.6659,6.6957,6.6964,6.6969,0,0,0,0,0,0,6.6622,6.6634,6.6719,6.6671,6.668,6.6647,6.668,6.6671,6.6686,6.6661,6.6654,6.6651,6.6642,6.665,6.6733,6.6803,6.6658,6.6663,6.6951,6.6959,6.6966,6.71,0,0,0,0,0,0,6.6619,6.6634,6.6683,6.6673,6.6683,6.6796,6.6684,6.6675,6.6695,6.6683,6.668,6.6675,6.6639,6.6726,6.6738,6.6807,6.6667,6.6945,6.6955,6.6964,6.7089,6.7111,6.713,0,0,0,0,0,6.6615,6.6721,6.6686,6.6698,6.6744,6.68,6.6806,6.6762,6.6702,6.675,6.6733,6.6675,6.6793,6.6735,6.6748,6.682,6.694,6.6952,6.6963,6.708,6.7107,6.713,0,0,0,0,0,0,6.6742,6.6719,6.668,6.6787,6.6796,6.6781,6.6841,6.6793,6.682,6.6807,6.6752,6.6752,6.6844,6.684,6.6776,6.6941,6.6856,6.6871,6.6941,6.6966,6.6986,6.6985,6.6671,0,0,0,0,0,6.6782,6.683,6.6807,6.6904,6.691,6.6875,6.6898,6.6863,6.6871,6.6874,6.6864,6.6873,6.6912,6.6939,6.6973,6.7088,6.7084,6.7144,6.7164,6.7181,6.7194,6.7251,6.7276,6.7007,6.7006,6.7006,0,0,6.6866,6.686,6.6894,6.6929,6.6932,6.6982,6.6879,6.6937,6.6973,6.6883,6.696,6.6953,6.6959,6.7058,6.7101,6.7058,6.7267,6.7195,6.7209,6.7213,6.7266,6.7291,6.7314,6.7014,6.7013,6.7012,0,0,6.7044,6.7045,6.7124,6.7128,6.7133,6.7108,6.7127,6.7118,6.7109,6.7185,6.7118,6.7159,6.7228,6.7234,6.7247,6.7423,6.737,6.7436,6.7543,6.7599,6.762,6.7639,6.77,6.7722,6.7449,6.7449,6.7449,0,6.7149,6.7221,6.7171,6.7231,6.7248,6.7167,6.7245,6.7251,6.7268,6.7281,6.7232,6.7314,6.7313,6.741,6.7453,6.7466,6.7485,6.7436,6.7621,6.7639,6.7656,6.7713,6.7736,6.7457,6.7456,6.7455,6.7455,0,6.7347,6.7398,6.746,6.7476,6.75,6.7569,6.7528,6.7558,6.752,6.75,6.7576,6.7572,6.7602,6.7623,6.7588,6.7715,6.7687,6.7631,6.7544,6.769,6.7743,6.7765,6.7468,6.7465,6.7463,6.7461,0,0,6.7609,6.7592,6.7616,6.762,6.7618,6.7656,6.7721,6.7749,6.7774,6.7788,6.7839,6.7897,6.7844,6.7858,6.7822,6.7872,6.8008,6.7809,6.7808,6.7844,6.8145,6.8186,6.8213,6.7973,6.7977,6.798,6.8144,0,6.7781,6.7889,6.7844,6.7956,6.8001,6.7922,6.7978,6.7982,6.7964,6.7999,6.7979,6.802,6.7948,6.7955,6.8001,6.7982,6.8068,6.797,6.8019,6.8022,6.8019,6.8241,6.8286,6.844,6.8164,6.8168,6.817,0,6.7997,6.8016,6.8133,6.8118,6.8135,6.8186,6.8206,6.8241,6.8243,6.8226,6.824,6.8192,6.8252,6.8166,6.8248,6.8182,6.8199,6.8193,6.8198,6.82,6.8104,6.8248,6.8489,6.8512,6.8203,6.82,6.8198,0,6.8173,6.8229,6.8304,6.8311,6.8297,6.8334,6.833,6.8327,6.8345,6.8363,6.8374,6.84,6.8414,6.8434,6.8393,6.8334,6.848,6.8391,6.8467,6.8468,6.8501,6.8499,6.8747,6.8514,6.8514,6.8513,6.8513,0,6.837,6.8444,6.8383,6.843,6.8509,6.8455,6.8535,6.8522,6.8519,6.8561,6.8495,6.8536,6.848,6.8516,6.8484,6.8555,6.8563,6.855,6.854,6.8555,6.8557,6.8565,6.8553,6.852,6.8518,6.8517,6.8516,0,6.8581,6.8543,6.862,6.8599,6.8595,6.8654,6.8636,6.8677,6.8653,6.8707,6.8716,6.8679,6.8717,6.8678,6.8714,6.8692,6.8787,6.8763,6.8786,6.8779,6.8856,6.8849,6.9118,6.9149,6.8898,6.89,6.8902,0,6.8709,6.8763,6.8746,6.8768,6.8768,6.8805,6.8823,6.8771,6.8792,6.8795,6.8836,6.8868,6.889,6.8953,6.893,6.8956,6.893,6.9023,6.8934,6.8946,6.893,6.8926,6.8931,6.9041,6.9044,6.9046,6.9048,0,6.8938,6.8916,6.8943,6.8963,6.8985,6.8999,6.9008,6.903,6.8976,6.9002,6.9039,6.9056,6.909,6.9122,6.914,6.9135,6.9083,6.9076,6.9095,6.911,6.912,6.9114,6.8834,6.907,6.9068,6.9066,6.9065,6.9064,6.911,6.9153,6.9147,6.9178,6.9178,6.9187,6.9224,6.9203,6.9232,6.9254,6.9222,6.9267,6.9264,6.9282,6.9283,6.9317,6.9278,6.9306,6.9312,6.932,6.933,6.9116,6.9321,6.932,6.9319,6.9319,6.9318,0,6.9335,6.9325,6.9355,6.9367,6.9391,6.9338,6.9343,6.9367,6.9407,6.9408,6.943,6.947,6.9499,6.9477,6.9501,6.9532,6.9508,6.954,6.9537,6.9536,6.9365,6.9345,6.9559,6.9559,6.9559,6.9558,6.9558,6.9558,6.9454,6.9523,6.9499,6.9566,6.9556,6.9598,6.9605,6.9612,6.9612,6.9659,6.9682,6.9667,6.9658,6.968,6.9704,6.9696,6.9708,6.9748,6.9732,6.9572,6.9549,6.9526,6.9507,6.9751,6.9751,6.99,6.9901,6.9902]}]]